Lexington Weather

Lexington, Massachusetts, USA

78°F
7/25/2024 12:45pm 
  • Lexington Conditions: Mostly cloudy
  • Temperature: 77.7°F / 25.4°CWarmer 0.9°F than last hour.
  • Dew Point: 72.1°FIncreased 0.1°Fsince last hour.
  • Relative Humidity: 83%Decreased 2.0% since last hour.
  • Wind: Wind from SSW SSW 1 mph, 10-min avg: 2 mph, gust: 6 mph
  • Barometer: 29.93 in Steady
  • Visibility: 10 miles
  • Rain Today: 0.00 in
  •   

Regional Weather Roundup
for Boston, MA

        
000
ASUS41 KBOX 191410
RWRBOX

REGIONAL WEATHER ROUNDUP
NATIONAL WEATHER SERVICE BOSTON/NORTON MA
1000 AM EDT FRI JUL 19 2024

NOTE:  "FAIR" INDICATES FEW OR NO CLOUDS BELOW 12,000 FEET WITH NO 
SIGNIFICANT WEATHER AND/OR OBSTRUCTIONS TO VISIBILITY.

MAZALL-191500-
EASTERN MASSACHUSETTS
  
CITY           SKY/WX    TMP DP  RH WIND       PRES   REMARKS
BOSTON         MOSUNNY   74  54  49 N7        30.07S                  
BEVERLY        SUNNY     73  54  51 NW9       30.07R                  
LAWRENCE       SUNNY     72  56  57 N7        30.10R                  
BEDFORD        SUNNY     73  55  53 NW9       30.07R                  
NORWOOD        SUNNY     76  60  57 NW7       30.08S                  
MARSHFIELD     SUNNY     72  54  53 VRB7      30.07S                  
PLYMOUTH       SUNNY     75  53  46 NW8       30.07R                  
TAUNTON        SUNNY     76  56  49 VRB5      30.07S                  
NEW BEDFORD    SUNNY     76  58  53 N7        30.07R                  
$$

MAZALL-191500-
CAPE COD AND THE ISLANDS
  
CITY           SKY/WX    TMP DP  RH WIND       PRES   REMARKS
FALMOUTH       SUNNY     72  57  60 NE13      30.09R                  
HYANNIS        MOSUNNY   68  56  65 N14G21    30.06R                  
CHATHAM        MOSUNNY   73  59  61 NW6       30.07R                  
PROVINCETOWN   SUNNY     69  60  73 NW12      30.08R                  
NANTUCKET      MOSUNNY   75  63  66 N13       30.06R                  
MARTHAS VNYRD  MOSUNNY   74  58  57 NW7       30.07R                  
$$
 
MAZALL-191500-
CENTRAL AND WESTERN MASSACHUSETTS
  
CITY           SKY/WX    TMP DP  RH WIND       PRES   REMARKS
WORCESTER      SUNNY     70  53  54 NW9       30.12R                  
FITCHBURG      SUNNY     74  56  53 N9        30.10S                  
ORANGE         SUNNY     71  54  54 NW9       30.13R                  
SPRINGFIELD    MOSUNNY   72  55  55 NE8       30.08S                  
WESTFIELD      SUNNY     74  55  51 MISG      30.11S                  
NORTH ADAMS    SUNNY     69  58  67 VRB6      30.13F                  
PITTSFIELD     SUNNY     68  54  60 NW7       30.14R                  
$$
 
RIZALL-191500-
RHODE ISLAND
  
CITY           SKY/WX    TMP DP  RH WIND       PRES   REMARKS
PROVIDENCE     MOSUNNY   73  57  57 N8        30.09S                  
NEWPORT        SUNNY     72  57  59 N10       30.08S                  
BLOCK ISLAND   MOSUNNY   70  58  65 VRB6        N/A                   
SMITHFIELD     SUNNY     72  59  63 NW6       30.10S                  
WESTERLY       SUNNY     75  56  51 N8        30.09S                  
$$
 
CTZALL-191500-
CONNECTICUT
  
CITY           SKY/WX    TMP DP  RH WIND       PRES   REMARKS
BRADLEY INTL   MOSUNNY   76  56  49 N7        30.11S                  
HARTFORD       SUNNY     74  56  53 N7        30.10F                  
PLAINVILLE     SUNNY     73  57  57 CALM      30.11F                  
BRIDGEPORT     SUNNY     75  58  55 N8        30.11S                  
DANBURY        SUNNY     73  57  57 N9        30.14S                  
GROTON         SUNNY     76  59  55 N7        30.08S                  
NEW HAVEN      SUNNY     77  59  53 N8        30.10F                  
CHESTER        SUNNY     73  57  56 N9        30.11S                  
MERIDEN        SUNNY     74  54  49 N7        30.11S                  
WILLIMANTIC    SUNNY     72  55  55 NW7       30.11S                  
OXFORD         MOSUNNY   70  59  68 NW8       30.14S                  
$$

MEZ002-015-021-024-NHZ003-005-008-011-012-014-VTZ005-008-191500-
NORTHERN NEW ENGLAND
  
CITY           SKY/WX    TMP DP  RH WIND       PRES   REMARKS
PORTLAND ME    MOSUNNY   74  57  55 N9        30.05S                  
BANGOR ME      SUNNY     73  58  59 VRB5      30.01S                  
CONCORD NH     SUNNY     74  57  55 NW10      30.08S                  
MANCHESTER NH  MOSUNNY   75  54  47 NW12G18   30.07S                  
NASHUA NH      MOSUNNY   73  56  54 NW9       30.09S                  
PORTSMOUTH NH  MOSUNNY   73  55  52 NW5       30.06R                  
JAFFREY NH     MOSUNNY   71  55  56 VRB3      30.12S                  
KEENE NH       SUNNY     71  55  56 N12       30.11S                  
BURLINGTON VT  MOSUNNY   71  57  61 S6        30.11F                  
MT. WASHINGTON PTSUNNY   46  39  76 NW17G28     N/A                   
$$

NYZ052-076-191500-
EASTERN NEW YORK
  
CITY           SKY/WX    TMP DP  RH WIND       PRES   REMARKS
ALBANY         MOSUNNY   72  55  55 N7        30.14S                  
NEW YORK CITY  MOSUNNY   75  54  47 N7        30.12S                  
$$
 
ANZALL-191500-
MARINE OBSERVATIONS
  
STATION/POSITION TIME  TEMP    WIND        PRES    VSBY  WAVE
                       AIR SEA DIR/SP/G                  HT/PER
                 (UTC) (F)     (DEG/KT/KT) (MB)    (MI)  (FT/S)
BOSTON BUOY      1350   62 62  280/  4/  4 1018.6R         1/ 8
BUZZARDS BAY     1300   68      20/  9/ 10 1018.5R
NANTUCKET SOUND  1350   70 76  360/ 12/ 16 1017.6R         1/ 3
MASS BAY-STELLWA 1204   64 62  320/  6/  8 1018.0R  1 7/8  2/ 8
ISLE OF SHOALS   1300   65     320/  8/  8 1017.2R
S OF BLOCK IS    1326      72                N/A           5/ 8
$$

......................KEY.........................
  SKY/WX - SKY CONDITION/PRESENT WEATHER
  TMP    - TEMPERATURE IN FAHRENHEIT
  DWPT   - DEWPOINT IN FAHRENHEIT
  RH     - RELATIVE HUMIDITY IN PERCENT
  WIND   - DIRECTION AND SPEED IN MPH
  PRES   - MEAN SEA LEVEL PRESSURE IN INCHES OF HG
  WCI    - WIND CHILL INDEX
  VSB    - VISIBILITY IN MILES
  HX     - HEAT INDEX
  TC     - TEMPERATURE IN CELSIUS
  VRB    - VARIABLE WIND DIRECTION
  N/A    - NOT AVAILABLE
  
      

Other recent Regional Weather Roundups

Thu Jul 25, 12:10pm EDT

Thu Jul 25, 11:10am EDT

Thu Jul 25, 10:10am EDT

Thu Jul 25, 9:10am EDT

Thu Jul 25, 8:10am EDT

Thu Jul 25, 7:10am EDT

Thu Jul 25, 6:10am EDT

Thu Jul 25, 5:10am EDT

Thu Jul 25, 4:10am EDT

Thu Jul 25, 3:10am EDT

Thu Jul 25, 2:10am EDT

Thu Jul 25, 1:10am EDT

Thu Jul 25, 12:10am EDT

Wed Jul 24, 11:10pm EDT

Wed Jul 24, 10:10pm EDT

Wed Jul 24, 9:10pm EDT

Wed Jul 24, 8:10pm EDT

Wed Jul 24, 7:10pm EDT

Wed Jul 24, 6:10pm EDT

Wed Jul 24, 5:10pm EDT

Wed Jul 24, 4:10pm EDT

Wed Jul 24, 3:10pm EDT

Wed Jul 24, 2:10pm EDT

Wed Jul 24, 1:10pm EDT

Wed Jul 24, 12:10pm EDT

Wed Jul 24, 11:10am EDT

Wed Jul 24, 10:10am EDT

Wed Jul 24, 9:10am EDT

Wed Jul 24, 8:10am EDT

Wed Jul 24, 7:10am EDT

Wed Jul 24, 6:10am EDT

Wed Jul 24, 5:10am EDT

Wed Jul 24, 4:10am EDT

Wed Jul 24, 3:10am EDT

Wed Jul 24, 2:10am EDT

Wed Jul 24, 1:10am EDT

Wed Jul 24, 12:10am EDT

Tue Jul 23, 11:10pm EDT

Tue Jul 23, 10:10pm EDT

Tue Jul 23, 9:10pm EDT

Tue Jul 23, 8:10pm EDT

Tue Jul 23, 7:10pm EDT

Tue Jul 23, 6:10pm EDT

Tue Jul 23, 5:10pm EDT

Tue Jul 23, 4:10pm EDT

Tue Jul 23, 3:10pm EDT

Tue Jul 23, 2:10pm EDT

Tue Jul 23, 1:10pm EDT

Tue Jul 23, 12:10pm EDT

Tue Jul 23, 11:10am EDT

Tue Jul 23, 10:10am EDT

Tue Jul 23, 10:10am EDT

Tue Jul 23, 9:10am EDT

Tue Jul 23, 8:10am EDT

Tue Jul 23, 7:10am EDT

Tue Jul 23, 6:10am EDT

Tue Jul 23, 5:10am EDT

Tue Jul 23, 4:10am EDT

Tue Jul 23, 3:10am EDT

Tue Jul 23, 2:10am EDT

Tue Jul 23, 1:10am EDT

Tue Jul 23, 12:10am EDT

Mon Jul 22, 11:10pm EDT

Mon Jul 22, 10:10pm EDT

Mon Jul 22, 9:10pm EDT

Mon Jul 22, 8:10pm EDT

Mon Jul 22, 7:10pm EDT

Mon Jul 22, 6:10pm EDT

Mon Jul 22, 5:10pm EDT

Mon Jul 22, 4:10pm EDT

Mon Jul 22, 3:10pm EDT

Mon Jul 22, 2:10pm EDT

Mon Jul 22, 1:10pm EDT

Mon Jul 22, 12:10pm EDT

Mon Jul 22, 11:10am EDT

Mon Jul 22, 10:10am EDT

Mon Jul 22, 9:10am EDT

Mon Jul 22, 8:10am EDT

Mon Jul 22, 7:10am EDT

Mon Jul 22, 6:10am EDT

Mon Jul 22, 5:10am EDT

Mon Jul 22, 4:10am EDT

Mon Jul 22, 3:10am EDT

Mon Jul 22, 2:10am EDT

Mon Jul 22, 1:10am EDT

Mon Jul 22, 12:10am EDT

Sun Jul 21, 11:10pm EDT

Sun Jul 21, 10:10pm EDT

Sun Jul 21, 9:10pm EDT

Sun Jul 21, 8:10pm EDT

Sun Jul 21, 7:10pm EDT

Sun Jul 21, 6:10pm EDT

Sun Jul 21, 5:10pm EDT

Sun Jul 21, 4:10pm EDT

Sun Jul 21, 3:10pm EDT

Sun Jul 21, 2:10pm EDT

Sun Jul 21, 1:10pm EDT

Sun Jul 21, 12:10pm EDT

Sun Jul 21, 11:10am EDT

Sun Jul 21, 10:10am EDT

Sun Jul 21, 9:10am EDT

Sun Jul 21, 8:10am EDT

Sun Jul 21, 7:10am EDT

Sun Jul 21, 6:10am EDT

Sun Jul 21, 5:10am EDT

Sun Jul 21, 4:10am EDT

Sun Jul 21, 3:10am EDT

Sun Jul 21, 2:10am EDT

Sun Jul 21, 1:10am EDT

Sun Jul 21, 12:10am EDT

Sat Jul 20, 11:10pm EDT

Sat Jul 20, 10:10pm EDT

Sat Jul 20, 9:10pm EDT

Sat Jul 20, 8:10pm EDT

Sat Jul 20, 7:10pm EDT

Sat Jul 20, 6:10pm EDT

Sat Jul 20, 5:10pm EDT

Sat Jul 20, 4:10pm EDT

Sat Jul 20, 3:10pm EDT

Sat Jul 20, 2:10pm EDT

Sat Jul 20, 1:10pm EDT

Sat Jul 20, 12:10pm EDT

Sat Jul 20, 11:10am EDT

Sat Jul 20, 10:10am EDT

Sat Jul 20, 9:10am EDT

Sat Jul 20, 8:10am EDT

Sat Jul 20, 7:10am EDT

Sat Jul 20, 6:10am EDT

Sat Jul 20, 5:10am EDT

Sat Jul 20, 4:10am EDT

Sat Jul 20, 3:10am EDT

Sat Jul 20, 2:10am EDT

Sat Jul 20, 1:10am EDT

Sat Jul 20, 12:10am EDT

Fri Jul 19, 11:10pm EDT

Fri Jul 19, 10:10pm EDT

Fri Jul 19, 9:10pm EDT

Fri Jul 19, 8:10pm EDT

Fri Jul 19, 7:10pm EDT

Fri Jul 19, 6:10pm EDT

Fri Jul 19, 5:10pm EDT

Fri Jul 19, 4:10pm EDT

Fri Jul 19, 3:10pm EDT

Fri Jul 19, 2:10pm EDT

Fri Jul 19, 1:10pm EDT

Fri Jul 19, 12:10pm EDT

Fri Jul 19, 11:10am EDT

Fri Jul 19, 9:10am EDT

Fri Jul 19, 8:10am EDT

Fri Jul 19, 7:10am EDT

Fri Jul 19, 6:10am EDT

Fri Jul 19, 5:10am EDT

Fri Jul 19, 4:10am EDT

Fri Jul 19, 3:10am EDT

Fri Jul 19, 2:10am EDT

Fri Jul 19, 1:10am EDT

Fri Jul 19, 12:10am EDT

Thu Jul 18, 11:10pm EDT

Thu Jul 18, 10:10pm EDT

Thu Jul 18, 9:10pm EDT

Thu Jul 18, 8:10pm EDT

Thu Jul 18, 7:10pm EDT

Thu Jul 18, 6:10pm EDT

Thu Jul 18, 5:10pm EDT

Thu Jul 18, 4:10pm EDT

Thu Jul 18, 3:10pm EDT

Thu Jul 18, 2:10pm EDT

Thu Jul 18, 1:10pm EDT